Showing default

EUTE 115 WEST B(SATMEX 7, 40425

Orbit data source: Space-Track

EUTE 115 WEST B(SATMEX 7, 40425 is a payload satellite owned by Eutelsat Americas (FR) in GEO that was launched on Mon, 02 Mar 2015 UTC via an FALCON 9 launch vehicle from the Air Force Eastern Test Range (AFETR). Payload-class satellites include a variety of spacecraft equipped with specific instruments for various scientific and technological missions. These include communications satellites like Starlink; space stations such as the ISS; scientific satellites like the Hubble; Earth observation satellites from companies like Planet Labs, Umbra, and HawkEye 360; GPS; miniature CubeSats for education and research; and military/defense satellites.

Loading next visibility...
Identifier
40425, 2015-010B
Orbit
GEO
Country
Flag of FRFR / EUTE
Related business
Manufacturer
Airbus/Toulouse
Mission
Operational Commercial Communications
Bus & Motor
BSS-702SP, XIPS-25
Mass
2,205 kg wet, ~1,500 kg dry
Launch date (UTC)
2015-03-02 (11 years ago)
Launch vehicle
FALCON 9
Launch site
Air Force Eastern Test Range (AFETR)
Object type
Payload
Rocket body
Debris
Shape & HBR
Box + 2 Pan, 20.0 m
Radar Cross Section
33.227 m², Large (>1 m²)

Expand to show TLE details & history
Last TLE update: 5 days ago

TLE from 5 days ago
0 EUTE 115 WEST B(SATMEX 7
1 40425U 15010B   26155.04324012 -.00000013  00000-0  00000-0 0  9992
2 40425   0.0106 149.0780 0000357 132.9776 231.1045  1.00273244 41265
Epoch: 2026-06-04T01:02Z
TLE epoch observation values (Epoch: 2026-06-04T01:02:15.946Z)
Latitude
0.00006°
Longitude
-114.90747°
Altitude
35,786.62 km
Speed
3.075 km/s
True Right ascension
10h 12m 36s
True Declination
0° 00' 00"
Sunlit
Object was in daylight at epoch
Visualization orbit readout
Latitude
Unknown
Longitude
Unknown
Altitude
Unknown
Speed
Unknown
Apparent Right ascension
Unknown
Apparent Declination
Unknown
Sunlit
N/A
Visualization observer readout
Local Sidereal Time
12:52:13
Azimuth
Unknown
Elevation
Unknown
Doppler factor
Unknown
Orbital elements
Apogee altitude
35,788.762 km
Perigee altitude
35,785.751 km
Semi-major axis
42,165.393 km
Eccentricity
0.00004
Inclination
0.0106°
RAAN
149.078°
Arg. of periapsis
132.9776°
True anomaly
231.10132°
Mean anomaly
231.1045°
Eccentric anomaly
231.10291°
Mean motion
0.25067 °/min
Orbital period
1,436.13 mins
BSTAR
0
Loading maneuver chart data...
Computing Atmospheric mass density...
Loading historical data...
Loading historical data...
Loading historical data...
Loading historical data...
Loading historical data...
Loading historical data...
Loading historical data...
Other satellites on launch #10 in the year 2015 (2015-03-02 UTC)

Documentation

Showing up to 5 results
|